Weather History for Oxnard, CA

Change the Weather History Date:

Tuesday, September 24, 2013

  Actual Average Record
Temperature  
Mean Temperature 65 °F -  
Max Temperature 77 °F 77 °F 103 °F (1978)
Min Temperature 55 °F 57 °F 48 °F (1961)
Growing Degree Days 15 (Base 50)    
Moisture  
Dew Point 52 °F    
Average Humidity 64    
Maximum Humidity 90    
Minimum Humidity 38    
Precipitation  
Precipitation 0.00 in - - ()
Sea Level Pressure  
Sea Level Pressure 29.87 in    
Wind  
Wind Speed 4 mph (West)    
Max Wind Speed 12 mph    
Max Gust Speed -    
Visibility 9 miles    
Events      
Averages and records for this station are not official NWS values.
T = Trace of Precipitation, MM = Missing Value Source: NWS Daily Summary

Daily Weather History Graph

Daily Weather History Graph

Search for Another Location

Airport:

Trip Planner

Search our weather history database for the weather conditions in past years. The results will help you decide how hot, cold, wet, or windy it might be!

Date:

Astronomy

Sep. 24, 2013 Rise Set
Actual Time 6:46 AM PDT 6:50 PM PDT
Civil Twilight 6:21 AM PDT 7:15 PM PDT
Nautical Twilight 5:52 AM PDT 7:44 PM PDT
Astronomical Twilight 5:22 AM PDT 8:13 PM PDT
Moon 10:25 PM PDT (9/24) 11:52 AM PDT (9/24)
Length of Visible Light 12h 53m
Length of Day
12h 03m
Waning Gibbous, 72% of the Moon is Illuminated
Sep 24
Waning Gibbous
Sep 26
Last Quarter
Oct 4
New
Oct 11
First Quarter
Oct 18
Full

Hourly Weather History & Observations

Time (PDT) Temp. Dew Point Humidity Pressure Visibility Wind Dir Wind Speed Gust Speed Precip Events Conditions
12:51 AM 61.0 °F 48.9 °F 64% 29.86 in 10.0 mi East 3.5 mph - N/A   Clear
1:51 AM 62.1 °F 48.0 °F 60% 29.87 in 10.0 mi Calm Calm - N/A   Clear
2:51 AM 60.1 °F 46.9 °F 62% 29.87 in 10.0 mi Calm Calm - N/A   Clear
3:51 AM 59.0 °F 46.0 °F 62% 29.87 in 10.0 mi East 3.5 mph - N/A   Clear
4:51 AM 57.9 °F 43.0 °F 58% 29.87 in 10.0 mi ENE 3.5 mph - N/A   Clear
5:51 AM 57.9 °F 43.0 °F 58% 29.88 in 10.0 mi SE 4.6 mph - N/A   Clear
6:51 AM 55.9 °F 41.0 °F 57% 29.89 in 10.0 mi NE 5.8 mph - N/A   Clear
7:51 AM 63.0 °F 42.1 °F 46% 29.91 in 10.0 mi NE 3.5 mph - N/A   Clear
8:51 AM 69.1 °F 43.0 °F 39% 29.92 in 10.0 mi Calm Calm - N/A   Clear
9:51 AM 72.0 °F 51.1 °F 48% 29.93 in 10.0 mi Calm Calm - N/A   Clear
10:51 AM 73.9 °F 51.1 °F 45% 29.93 in 10.0 mi WSW 6.9 mph - N/A   Clear
11:51 AM 75.9 °F 48.9 °F 38% 29.91 in 10.0 mi SW 5.8 mph - N/A   Clear
12:51 PM 75.9 °F 51.1 °F 42% 29.90 in 10.0 mi SW 6.9 mph - N/A   Clear
1:51 PM 75.0 °F 50.0 °F 41% 29.88 in 10.0 mi WSW 5.8 mph - N/A   Clear
2:51 PM 73.0 °F 55.9 °F 55% 29.87 in 10.0 mi SW 9.2 mph - N/A   Clear
3:51 PM 70.0 °F 61.0 °F 73% 29.86 in 10.0 mi West 9.2 mph - N/A   Clear
4:51 PM 68.0 °F 59.0 °F 73% 29.85 in 10.0 mi West 11.5 mph - N/A   Clear
5:51 PM 64.9 °F 59.0 °F 81% 29.84 in 8.0 mi West 4.6 mph - N/A   Clear
6:51 PM 63.0 °F 59.0 °F 87% 29.83 in 8.0 mi West 8.1 mph - N/A   Clear
7:51 PM 62.1 °F 59.0 °F 90% 29.84 in 8.0 mi WNW 6.9 mph - N/A   Clear
8:51 PM 61.0 °F 57.9 °F 90% 29.85 in 7.0 mi West 4.6 mph - N/A   Clear
9:51 PM 60.1 °F 57.0 °F 90% 29.85 in 8.0 mi NNE 3.5 mph - N/A   Clear
10:51 PM 61.0 °F 57.9 °F 90% 29.84 in 7.0 mi Calm Calm - N/A   Clear
11:51 PM 61.0 °F 57.9 °F 90% 29.83 in 8.0 mi Calm Calm - N/A   Clear